Delta Virtual Airport Information Service

Tokyo Narita International Airport

ICAO: RJAA Country: Japan
Latitude: 35.7647 Longitude: 140.386
Latest Arrival : DAC553 (VQPR-RJAA) Latest Departure : DALJUMP (RJAA-KMSP)


WX CaptureLIVE
Data provided by noaa.gov | Fetched at 10:11:08

METAR : RJAA 151430Z 09004KT 060V150 9999 -SHRA FEW020 SCT030 BKN045 21/20 Q1008 NOSIG RMK 1CU020 3CU030 7SC045 A2977

TAF : RJAA 151105Z 1512/1618 12005KT 9999 FEW010 BKN040 BECMG 1609/1612 04006KT


Runway Data for RJAA
Data provided by openaviationdata.com

Runway ID Mag Var Hdg Length Elevation Surface ILS Freq ILS Id ILS Slope
16L -7 156° 8202 ft 135 ft Asphalt 110.7 ITM 3
16R -7 156° 13132 ft 135 ft Asphalt 111.5 IKF 3
34L -7 336° 13132 ft 135 ft Asphalt 111.9 IYQ 3
34R -7 336° 8202 ft 135 ft Asphalt 110.9 ITJ 3

Tokyo Narita International Airport, Japan
Use only for reference purposes



Not for navigational purposes.